Погода в Панипате

Индия     29°22′58″N   76°58′09″E
темп.,
°C
ветер,
м/с
пор.,
м/с
влажн.,
%
обл.,
%
осадки,
мм/ч
давл.,
гПа
погр.,
м
9 марта, вт
вт923:30+21всв33260 0.0 101232
02:30+18в34300 0.0 101176
05:30+17всв23440 0.0 101225
08:30+23в233213 0.0 1013169
11:30+33ююв11156 0.0 10131160
14:30+35з33110 0.0 10093832
17:30+32юз11150 0.0 100828
20:30+24ссз12205 0.0 101025
10 марта, ср
ср1023:30+23ссв33173 0.0 101126
02:30+19вюв11307 0.1 101023
05:30+17в123916 0.4 101023
08:30+22ссв22364 0.1 1013106
11:30+33ссз11162 0.1 1012637
14:30+36сз3397 0.0 10084607
17:30+33сз241244 0.0 1007162
20:30+25ююз12170 0.0 100924
11 марта, чт
чт1123:30+22юв01210 0.0 101023
02:30+21св23200 0.0 100923
05:30+18всв23190 0.0 100924
08:30+24в34170 0.0 1012166
11:30+35ююв34100 0.0 10121164
14:30+37ю3480 0.0 10084803
17:30+35ю461025 0.0 1007399
20:30+28вюв23143 0.0 100924
12 марта, пт
пт1223:30+21юв122627 0.1 101024
02:30+21всв232132 0.0 101026
05:30+22всв591849 0.0 1011168
08:30+25в5716100 0.0 1013240
11:30+33ююв5814100 0.0 10141519
14:30+35ююв88148 0.0 10113226
17:30+23св255243 1.1 1010143
20:30+17всв6118391 2.8 1014172
13 марта, сб
сб1323:30+16в5138168 3.1 1016238
02:30+16св49770 0.0 1015165
05:30+16в236916 0.0 101524
08:30+21в34515 0.0 1017169
11:30+31ю012552 0.0 1016949
14:30+33сз3416100 0.0 10132787
17:30+32ссз3416100 0.0 1011232
20:30+24ссз3323100 0.0 101125